JBU570 KMCO-KRIC

Flight info

Callsign JBU570
Flight time 1h 37m
Altitude 37000
Route FATHE4 VIYAP Q87 NOWAE NEAVL DUCXS5
Aircraft A320/M-SDE3GHIJ3J4J7M3P2RWZ/LB1D1

Departure

Time 2026-05-05 23:42
Airport Orlando International Airport (KMCO)

Arrival

Time 2026-05-06 01:20
Airport Richmond International Airport (KRIC)
Time Latitude Longitude Altitude Speed Heading
2026-05-05 23:09 28.41523 -81.31453 95 ft 0 kts 100°
2026-05-05 23:28 28.41523 -81.31457 96 ft 3 kts 99°
2026-05-05 23:28 28.41527 -81.31487 96 ft 4 kts 94°
2026-05-05 23:29 28.41527 -81.31517 94 ft 4 kts 82°
2026-05-05 23:29 28.41519 -81.31545 95 ft 4 kts 43°
2026-05-05 23:29 28.41509 -81.31552 95 ft 0 kts
2026-05-05 23:32 28.41528 -81.31550 93 ft 11 kts
2026-05-05 23:33 28.41608 -81.31568 97 ft 13 kts 316°
2026-05-05 23:33 28.41652 -81.31660 97 ft 12 kts 293°
2026-05-05 23:33 28.41684 -81.31744 98 ft 12 kts 296°
2026-05-05 23:33 28.41747 -81.31814 98 ft 13 kts 302°
2026-05-05 23:34 28.41811 -81.31875 100 ft 14 kts 353°
2026-05-05 23:34 28.41918 -81.31878 98 ft 17 kts 359°
2026-05-05 23:34 28.42041 -81.31879 98 ft 19 kts 360°
2026-05-05 23:34 28.42178 -81.31858 98 ft 21 kts 15°
2026-05-05 23:35 28.42260 -81.31790 101 ft 15 kts 78°
2026-05-05 23:35 28.42266 -81.31651 98 ft 20 kts 89°
2026-05-05 23:35 28.42267 -81.31485 96 ft 22 kts 90°
2026-05-05 23:35 28.42268 -81.31303 94 ft 23 kts 90°
2026-05-05 23:36 28.42247 -81.31115 94 ft 25 kts 100°
2026-05-05 23:36 28.42235 -81.30916 95 ft 26 kts 85°
2026-05-05 23:36 28.42251 -81.30709 96 ft 26 kts 85°
2026-05-05 23:36 28.42265 -81.30515 94 ft 24 kts 85°
2026-05-05 23:37 28.42275 -81.30322 94 ft 25 kts 89°
2026-05-05 23:37 28.42278 -81.30120 94 ft 25 kts 89°
2026-05-05 23:37 28.42280 -81.29925 94 ft 21 kts 90°
2026-05-05 23:37 28.42243 -81.29801 94 ft 18 kts 152°
2026-05-05 23:38 28.42113 -81.29790 95 ft 20 kts 179°
2026-05-05 23:38 28.41967 -81.29789 94 ft 22 kts 180°
2026-05-05 23:38 28.41808 -81.29787 98 ft 24 kts 179°
2026-05-05 23:38 28.41638 -81.29786 98 ft 26 kts 179°
2026-05-05 23:39 28.41469 -81.29784 96 ft 25 kts 179°
2026-05-05 23:39 28.41293 -81.29783 96 ft 25 kts 179°
2026-05-05 23:39 28.41113 -81.29781 95 ft 26 kts 179°
2026-05-05 23:39 28.40940 -81.29779 97 ft 23 kts 180°
2026-05-05 23:40 28.40835 -81.29762 94 ft 12 kts 139°
2026-05-05 23:40 28.40819 -81.29701 94 ft 13 kts 92°
2026-05-05 23:40 28.40823 -81.29589 93 ft 13 kts 86°
2026-05-05 23:40 28.40868 -81.29559 93 ft 6 kts 357°
2026-05-05 23:41 28.40872 -81.29559 93 ft 0 kts 360°
2026-05-05 23:41 28.40976 -81.29559 94 ft 47 kts 359°
2026-05-05 23:41 28.41534 -81.29565 100 ft 110 kts 360°
2026-05-05 23:41 28.42472 -81.29573 97 ft 157 kts 360°
2026-05-05 23:42 28.43648 -81.29596 463 ft 170 kts 360°
2026-05-05 23:42 28.44840 -81.29544 1030 ft 173 kts 19°
2026-05-05 23:42 28.45955 -81.28977 1442 ft 184 kts 31°
2026-05-05 23:42 28.47128 -81.28228 1792 ft 202 kts 33°
2026-05-05 23:43 28.48406 -81.27380 2098 ft 226 kts 34°
2026-05-05 23:43 28.49837 -81.26415 2505 ft 250 kts 34°
2026-05-05 23:43 28.51414 -81.25478 3247 ft 262 kts 18°
2026-05-05 23:43 28.53254 -81.25302 4043 ft 271 kts 355°
2026-05-05 23:44 28.55147 -81.25383 4967 ft 274 kts 357°
2026-05-05 23:44 28.57060 -81.25394 5883 ft 276 kts 356°
2026-05-05 23:44 28.59000 -81.25438 6635 ft 282 kts 353°
2026-05-05 23:44 28.60947 -81.25631 6852 ft 280 kts 351°
2026-05-05 23:45 28.62876 -81.25896 7005 ft 280 kts 350°
2026-05-05 23:45 28.64828 -81.26182 7809 ft 282 kts 349°
2026-05-05 23:45 28.66773 -81.26464 8738 ft 282 kts 349°
2026-05-05 23:45 28.68722 -81.26739 9683 ft 281 kts 349°
2026-05-05 23:46 28.70697 -81.27012 10391 ft 289 kts 349°
2026-05-05 23:46 28.72768 -81.27303 10579 ft 312 kts 349°
2026-05-05 23:46 28.74999 -81.27617 10760 ft 332 kts 350°
2026-05-05 23:46 28.77327 -81.27936 11256 ft 341 kts 350°
2026-05-05 23:47 28.79699 -81.28258 11858 ft 345 kts 351°
2026-05-05 23:47 28.82090 -81.28581 12469 ft 348 kts 351°
2026-05-05 23:47 28.84491 -81.28903 13075 ft 352 kts 351°
2026-05-05 23:47 28.86937 -81.29170 13689 ft 355 kts 353°
2026-05-05 23:48 28.89419 -81.29383 14245 ft 359 kts 354°
2026-05-05 23:48 28.91922 -81.29571 14809 ft 361 kts 354°
2026-05-05 23:48 28.94436 -81.29755 15375 ft 363 kts 354°
2026-05-05 23:48 28.96966 -81.29949 15864 ft 365 kts 353°
2026-05-05 23:49 28.99504 -81.30155 16247 ft 367 kts 353°
2026-05-05 23:49 29.02053 -81.30401 16822 ft 368 kts 352°
2026-05-05 23:49 29.04642 -81.30689 17410 ft 370 kts 351°
2026-05-05 23:49 29.07206 -81.30993 18000 ft 372 kts 351°
2026-05-05 23:50 29.09754 -81.31297 18537 ft 374 kts 351°
2026-05-05 23:50 29.12388 -81.31577 19022 ft 377 kts 352°
2026-05-05 23:50 29.15018 -81.31773 19492 ft 380 kts 353°
2026-05-05 23:50 29.17674 -81.31922 19970 ft 384 kts 353°
2026-05-05 23:51 29.20348 -81.32050 20443 ft 387 kts 353°
2026-05-05 23:51 29.23046 -81.32179 20903 ft 389 kts 353°
2026-05-05 23:51 29.25762 -81.32320 21360 ft 392 kts 353°
2026-05-05 23:51 29.28500 -81.32471 21788 ft 395 kts 352°
2026-05-05 23:52 29.31258 -81.32631 22206 ft 398 kts 352°
2026-05-05 23:52 29.34036 -81.32799 22622 ft 401 kts 352°
2026-05-05 23:52 29.36831 -81.32971 23032 ft 404 kts 351°
2026-05-05 23:52 29.39649 -81.33148 23438 ft 407 kts 351°
2026-05-05 23:53 29.42487 -81.33323 23810 ft 410 kts 351°
2026-05-05 23:53 29.45334 -81.33495 24180 ft 411 kts 351°
2026-05-05 23:53 29.48192 -81.33665 24571 ft 411 kts 351°
2026-05-05 23:53 29.51052 -81.33837 24964 ft 412 kts 351°
2026-05-05 23:54 29.53910 -81.34007 25363 ft 412 kts 351°
2026-05-05 23:54 29.56771 -81.34179 25789 ft 412 kts 351°
2026-05-05 23:54 29.59632 -81.34353 26196 ft 412 kts 351°
2026-05-05 23:54 29.62495 -81.34527 26610 ft 412 kts 351°
2026-05-05 23:55 29.65363 -81.34701 27025 ft 413 kts 351°
2026-05-05 23:55 29.68231 -81.34871 27434 ft 413 kts 351°
2026-05-05 23:55 29.71106 -81.35038 27836 ft 414 kts 351°
2026-05-05 23:55 29.73978 -81.35203 28228 ft 414 kts 351°
2026-05-05 23:56 29.76858 -81.35366 28635 ft 414 kts 351°
2026-05-05 23:56 29.79740 -81.35528 29030 ft 415 kts 351°
2026-05-05 23:56 29.82614 -81.35693 29597 ft 411 kts 351°
2026-05-05 23:56 29.85498 -81.35858 30231 ft 407 kts 351°
2026-05-05 23:57 29.88314 -81.36017 30744 ft 404 kts 351°
2026-05-05 23:57 29.91078 -81.36172 31234 ft 401 kts 351°
2026-05-05 23:57 29.93890 -81.36332 31728 ft 398 kts 350°
2026-05-05 23:57 29.96649 -81.36491 32214 ft 396 kts 350°
2026-05-05 23:58 29.99390 -81.36648 32704 ft 393 kts 350°
2026-05-05 23:58 30.02109 -81.36801 33196 ft 390 kts 350°
2026-05-05 23:58 30.04815 -81.36953 33691 ft 388 kts 349°
2026-05-05 23:58 30.07498 -81.37105 34171 ft 385 kts 349°
2026-05-05 23:59 30.10172 -81.37260 34580 ft 383 kts 349°
2026-05-05 23:59 30.12823 -81.37414 34987 ft 382 kts 349°
2026-05-05 23:59 30.15473 -81.37571 35335 ft 381 kts 348°
2026-05-05 23:59 30.18113 -81.37726 35682 ft 379 kts 348°
2026-05-06 00:00 30.20745 -81.37878 36017 ft 378 kts 348°
2026-05-06 00:00 30.23370 -81.38029 36371 ft 377 kts 348°
2026-05-06 00:00 30.25986 -81.38180 36699 ft 375 kts 348°
2026-05-06 00:00 30.28591 -81.38331 37006 ft 375 kts 348°
2026-05-06 00:01 30.33843 -81.38646 37081 ft 382 kts 348°
2026-05-06 00:01 30.39180 -81.38962 37084 ft 385 kts 348°
2026-05-06 00:02 30.44535 -81.39270 37083 ft 385 kts 348°
2026-05-06 00:02 30.49896 -81.39570 37075 ft 386 kts 348°
2026-05-06 00:03 30.55259 -81.39847 37085 ft 386 kts 348°
2026-05-06 00:03 30.60628 -81.40123 37089 ft 386 kts 348°
2026-05-06 00:04 30.66001 -81.40403 37095 ft 386 kts 348°
2026-05-06 00:04 30.71409 -81.40697 37105 ft 387 kts 348°
2026-05-06 00:05 30.79474 -81.41123 37099 ft 387 kts 348°
2026-05-06 00:06 30.84853 -81.41408 37101 ft 387 kts 348°
2026-05-06 00:06 30.90236 -81.41695 37097 ft 387 kts 348°
2026-05-06 00:07 30.95610 -81.41978 37087 ft 387 kts 348°
2026-05-06 00:07 31.00985 -81.42262 37094 ft 386 kts 348°
2026-05-06 00:08 31.06351 -81.42551 37090 ft 386 kts 348°
2026-05-06 00:08 31.11717 -81.42842 37084 ft 386 kts 348°
2026-05-06 00:09 31.17076 -81.43130 37078 ft 386 kts 348°
2026-05-06 00:09 31.22441 -81.43410 37094 ft 388 kts 350°
2026-05-06 00:09 31.25177 -81.43136 37125 ft 402 kts
2026-05-06 00:10 31.27904 -81.42146 37117 ft 420 kts 12°
2026-05-06 00:10 31.33239 -81.39252 37106 ft 423 kts 13°
2026-05-06 00:11 31.38575 -81.36336 37096 ft 423 kts 13°
2026-05-06 00:11 31.43925 -81.33433 37093 ft 424 kts 13°
2026-05-06 00:12 31.49280 -81.30529 37087 ft 424 kts 13°
2026-05-06 00:12 31.53736 -81.28114 37120 ft 425 kts 13°
2026-05-06 00:13 31.59099 -81.25193 37104 ft 425 kts 13°
2026-05-06 00:13 31.64469 -81.22259 37090 ft 426 kts 13°
2026-05-06 00:14 31.69838 -81.19323 37080 ft 426 kts 13°
2026-05-06 00:14 31.75219 -81.16380 37077 ft 426 kts 13°
2026-05-06 00:15 31.80625 -81.13421 37085 ft 426 kts 13°
2026-05-06 00:15 31.85973 -81.10489 37074 ft 427 kts 13°
2026-05-06 00:16 31.91386 -81.07516 37067 ft 427 kts 13°
2026-05-06 00:16 31.96768 -81.04566 37063 ft 427 kts 13°
2026-05-06 00:17 32.02146 -81.01599 37059 ft 427 kts 14°
2026-05-06 00:17 32.07523 -80.98590 37067 ft 428 kts 14°
2026-05-06 00:18 32.12891 -80.95572 37064 ft 428 kts 14°
2026-05-06 00:18 32.18269 -80.92561 37101 ft 428 kts 14°
2026-05-06 00:19 32.23653 -80.89547 37108 ft 428 kts 14°
2026-05-06 00:19 32.29032 -80.86522 37138 ft 428 kts 15°
2026-05-06 00:20 32.34413 -80.83490 37117 ft 429 kts 15°
2026-05-06 00:20 32.39799 -80.80455 37098 ft 429 kts 15°
2026-05-06 00:21 32.45186 -80.77417 37095 ft 429 kts 15°
2026-05-06 00:21 32.50577 -80.74373 37092 ft 429 kts 15°
2026-05-06 00:22 32.55970 -80.71328 37116 ft 429 kts 15°
2026-05-06 00:22 32.61365 -80.68271 37104 ft 430 kts 15°
2026-05-06 00:23 32.66758 -80.65200 37099 ft 430 kts 15°
2026-05-06 00:23 32.72154 -80.62124 37084 ft 431 kts 15°
2026-05-06 00:24 32.77539 -80.58976 37095 ft 432 kts 16°
2026-05-06 00:24 32.82911 -80.55758 37124 ft 433 kts 16°
2026-05-06 00:25 32.88293 -80.52529 37119 ft 433 kts 16°
2026-05-06 00:25 32.93678 -80.49317 37101 ft 433 kts 16°
2026-05-06 00:26 32.99057 -80.46106 37104 ft 433 kts 16°
2026-05-06 00:26 33.04440 -80.42901 37099 ft 432 kts 16°
2026-05-06 00:27 33.09821 -80.39693 37093 ft 432 kts 16°
2026-05-06 00:27 33.15235 -80.36449 37094 ft 433 kts 17°
2026-05-06 00:28 33.20584 -80.33234 37092 ft 433 kts 16°
2026-05-06 00:28 33.25996 -80.29985 37092 ft 433 kts 16°
2026-05-06 00:29 33.31374 -80.26753 37120 ft 433 kts 17°
2026-05-06 00:29 33.36760 -80.23506 37102 ft 433 kts 17°
2026-05-06 00:30 33.42147 -80.20258 37097 ft 433 kts 17°
2026-05-06 00:30 33.47495 -80.17035 37096 ft 433 kts 17°
2026-05-06 00:31 33.52910 -80.13764 37110 ft 433 kts 17°
2026-05-06 00:31 33.58285 -80.10511 37125 ft 433 kts 17°
2026-05-06 00:32 33.63651 -80.07248 37110 ft 432 kts 17°
2026-05-06 00:32 33.69016 -80.03987 37108 ft 432 kts 17°
2026-05-06 00:33 33.74388 -80.00735 37106 ft 432 kts 17°
2026-05-06 00:33 33.79754 -79.97472 37083 ft 432 kts 17°
2026-05-06 00:34 33.85119 -79.94192 37089 ft 433 kts 17°
2026-05-06 00:34 33.90484 -79.90917 37082 ft 433 kts 17°
2026-05-06 00:35 33.95853 -79.87635 37076 ft 433 kts 17°
2026-05-06 00:35 34.01224 -79.84355 37079 ft 433 kts 17°
2026-05-06 00:36 34.06591 -79.81065 37099 ft 433 kts 17°
2026-05-06 00:36 34.11957 -79.77771 37100 ft 433 kts 17°
2026-05-06 00:37 34.17321 -79.74468 37090 ft 432 kts 17°
2026-05-06 00:37 34.22668 -79.71175 37091 ft 431 kts 17°
2026-05-06 00:38 34.28047 -79.67866 37084 ft 431 kts 17°
2026-05-06 00:38 34.33386 -79.64563 37100 ft 431 kts 17°
2026-05-06 00:39 34.38725 -79.61257 37089 ft 431 kts 17°
2026-05-06 00:39 34.44064 -79.57950 37078 ft 431 kts 17°
2026-05-06 00:40 34.49401 -79.54642 37068 ft 431 kts 17°
2026-05-06 00:40 34.54739 -79.51330 37091 ft 431 kts 17°
2026-05-06 00:41 34.60054 -79.47888 37079 ft 434 kts 18°
2026-05-06 00:41 34.65327 -79.44293 37074 ft 435 kts 19°
2026-05-06 00:42 34.70594 -79.40679 37081 ft 434 kts 19°
2026-05-06 00:42 34.75861 -79.37111 37079 ft 433 kts 19°
2026-05-06 00:43 34.81124 -79.33555 37074 ft 432 kts 19°
2026-05-06 00:43 34.86367 -79.30000 37068 ft 432 kts 19°
2026-05-06 00:44 34.91614 -79.26430 37065 ft 432 kts 19°
2026-05-06 00:44 34.96863 -79.22858 37062 ft 432 kts 19°
2026-05-06 00:45 35.02113 -79.19283 37077 ft 432 kts 19°
2026-05-06 00:45 35.07370 -79.15700 37063 ft 433 kts 19°
2026-05-06 00:46 35.11734 -79.12711 37059 ft 433 kts 19°
2026-05-06 00:46 35.16990 -79.09119 37055 ft 433 kts 19°
2026-05-06 00:47 35.22234 -79.05533 36421 ft 431 kts 19°
2026-05-06 00:47 35.24856 -79.03739 35763 ft 432 kts 19°
2026-05-06 00:47 35.27486 -79.01938 35106 ft 435 kts 19°
2026-05-06 00:47 35.30132 -79.00125 34384 ft 438 kts 20°
2026-05-06 00:48 35.32802 -78.98291 33589 ft 441 kts 20°
2026-05-06 00:48 35.35489 -78.96440 32752 ft 445 kts 20°
2026-05-06 00:48 35.38182 -78.94580 32131 ft 443 kts 21°
2026-05-06 00:48 35.40861 -78.92727 31534 ft 441 kts 21°
2026-05-06 00:49 35.43570 -78.90850 31134 ft 441 kts 21°
2026-05-06 00:49 35.46249 -78.88997 30942 ft 443 kts 21°
2026-05-06 00:49 35.48938 -78.87141 30753 ft 443 kts 21°
2026-05-06 00:49 35.51625 -78.85289 30562 ft 443 kts 22°
2026-05-06 00:50 35.54285 -78.83453 30377 ft 443 kts 22°
2026-05-06 00:50 35.56965 -78.81591 30188 ft 442 kts 22°
2026-05-06 00:50 35.59642 -78.79729 29982 ft 442 kts 22°
2026-05-06 00:50 35.62319 -78.77878 29756 ft 441 kts 22°
2026-05-06 00:51 35.64989 -78.76037 29532 ft 439 kts 22°
2026-05-06 00:51 35.67684 -78.74173 29326 ft 438 kts 22°
2026-05-06 00:51 35.70299 -78.72357 29100 ft 437 kts 22°
2026-05-06 00:51 35.72969 -78.70483 28903 ft 436 kts 23°
2026-05-06 00:52 35.75586 -78.68590 28699 ft 437 kts 24°
2026-05-06 00:52 35.78184 -78.66654 28483 ft 436 kts 25°
2026-05-06 00:52 35.80771 -78.64702 28285 ft 436 kts 25°
2026-05-06 00:52 35.83349 -78.62747 28058 ft 434 kts 25°
2026-05-06 00:53 35.85916 -78.60799 27852 ft 433 kts 25°
2026-05-06 00:53 35.88480 -78.58865 27656 ft 431 kts 25°
2026-05-06 00:53 35.91043 -78.56948 27452 ft 430 kts 25°
2026-05-06 00:53 35.93598 -78.55040 27253 ft 429 kts 25°
2026-05-06 00:54 35.96145 -78.53140 27065 ft 427 kts 25°
2026-05-06 00:54 35.98690 -78.51247 26868 ft 427 kts 25°
2026-05-06 00:54 36.01229 -78.49356 26671 ft 425 kts 25°
2026-05-06 00:54 36.03759 -78.47466 26474 ft 424 kts 25°
2026-05-06 00:55 36.06278 -78.45579 26274 ft 423 kts 25°
2026-05-06 00:55 36.08791 -78.43686 26084 ft 422 kts 25°
2026-05-06 00:55 36.11295 -78.41798 25889 ft 421 kts 25°
2026-05-06 00:55 36.13795 -78.39917 25695 ft 420 kts 25°
2026-05-06 00:56 36.16281 -78.38045 25502 ft 418 kts 26°
2026-05-06 00:56 36.18763 -78.36174 25327 ft 418 kts 26°
2026-05-06 00:56 36.21248 -78.34297 25120 ft 418 kts 26°
2026-05-06 00:56 36.23725 -78.32429 24868 ft 416 kts 26°
2026-05-06 00:57 36.26196 -78.30570 24634 ft 415 kts 26°
2026-05-06 00:57 36.28660 -78.28715 24405 ft 414 kts 26°
2026-05-06 00:57 36.31116 -78.26859 24176 ft 413 kts 26°
2026-05-06 00:57 36.33564 -78.25005 23949 ft 411 kts 26°
2026-05-06 00:58 36.36001 -78.23158 23720 ft 410 kts 26°
2026-05-06 00:58 36.38425 -78.21319 23393 ft 406 kts 26°
2026-05-06 00:58 36.40852 -78.19475 22906 ft 402 kts 26°
2026-05-06 00:58 36.43227 -78.17676 22442 ft 398 kts 26°
2026-05-06 00:59 36.45586 -78.15884 21966 ft 395 kts 26°
2026-05-06 00:59 36.47918 -78.14106 21500 ft 392 kts 27°
2026-05-06 00:59 36.50237 -78.12337 21009 ft 390 kts 27°
2026-05-06 00:59 36.52542 -78.10589 20528 ft 387 kts 27°
2026-05-06 01:00 36.54839 -78.08849 20031 ft 386 kts 27°
2026-05-06 01:00 36.57128 -78.07111 19579 ft 384 kts 27°
2026-05-06 01:00 36.59408 -78.05379 19069 ft 384 kts 28°
2026-05-06 01:00 36.61686 -78.03636 18550 ft 385 kts 28°
2026-05-06 01:01 36.63969 -78.01891 17999 ft 385 kts 28°
2026-05-06 01:01 36.66249 -78.00141 17451 ft 384 kts 28°
2026-05-06 01:01 36.68519 -77.98394 16919 ft 383 kts 28°
2026-05-06 01:01 36.70779 -77.96661 16398 ft 381 kts 28°
2026-05-06 01:02 36.73038 -77.94941 15856 ft 380 kts 28°
2026-05-06 01:02 36.75290 -77.93222 15283 ft 380 kts 28°
2026-05-06 01:02 36.77541 -77.91503 14735 ft 378 kts 28°
2026-05-06 01:02 36.79777 -77.89789 14218 ft 377 kts 28°
2026-05-06 01:03 36.82002 -77.88082 13720 ft 374 kts 29°
2026-05-06 01:03 36.84215 -77.86383 13158 ft 372 kts 29°
2026-05-06 01:03 36.86411 -77.84688 12600 ft 370 kts 29°
2026-05-06 01:03 36.88594 -77.82998 12076 ft 368 kts 29°
2026-05-06 01:04 36.90759 -77.81322 11549 ft 367 kts 30°
2026-05-06 01:04 36.92910 -77.79660 11322 ft 357 kts 30°
2026-05-06 01:04 36.94987 -77.78055 11175 ft 346 kts 30°
2026-05-06 01:04 36.97007 -77.76501 11030 ft 335 kts 29°
2026-05-06 01:05 36.98982 -77.74989 11030 ft 323 kts 28°
2026-05-06 01:05 37.00899 -77.73546 11035 ft 321 kts 28°
2026-05-06 01:05 37.02912 -77.72406 10818 ft 314 kts 10°
2026-05-06 01:05 37.05053 -77.71997 10581 ft 312 kts
2026-05-06 01:06 37.07207 -77.71664 10344 ft 311 kts
2026-05-06 01:06 37.09357 -77.71330 10127 ft 311 kts
2026-05-06 01:06 37.11498 -77.70992 9934 ft 308 kts
2026-05-06 01:06 37.13632 -77.70654 9803 ft 309 kts
2026-05-06 01:07 37.15755 -77.70318 9402 ft 305 kts
2026-05-06 01:07 37.17863 -77.69984 8768 ft 306 kts
2026-05-06 01:07 37.19979 -77.69647 8433 ft 305 kts
2026-05-06 01:07 37.22083 -77.69311 8090 ft 305 kts
2026-05-06 01:08 37.24181 -77.68978 7767 ft 304 kts
2026-05-06 01:08 37.26275 -77.68645 7436 ft 303 kts
2026-05-06 01:08 37.28365 -77.68312 7102 ft 302 kts
2026-05-06 01:08 37.30451 -77.67979 6781 ft 302 kts
2026-05-06 01:09 37.32534 -77.67646 6462 ft 302 kts
2026-05-06 01:09 37.34608 -77.67314 5876 ft 300 kts
2026-05-06 01:09 37.36675 -77.66982 5301 ft 298 kts
2026-05-06 01:09 37.38724 -77.66655 4732 ft 296 kts
2026-05-06 01:10 37.40768 -77.66332 4180 ft 297 kts
2026-05-06 01:10 37.42843 -77.66004 4012 ft 297 kts
2026-05-06 01:10 37.44894 -77.65682 4014 ft 298 kts
2026-05-06 01:10 37.46957 -77.65362 4019 ft 299 kts
2026-05-06 01:11 37.49022 -77.65043 4020 ft 299 kts
2026-05-06 01:11 37.51095 -77.64728 4018 ft 299 kts
2026-05-06 01:11 37.53160 -77.64395 4018 ft 299 kts
2026-05-06 01:11 37.55235 -77.64065 4022 ft 302 kts
2026-05-06 01:12 37.57320 -77.63739 4015 ft 301 kts
2026-05-06 01:12 37.59391 -77.63400 4015 ft 300 kts
2026-05-06 01:12 37.61456 -77.62988 4007 ft 302 kts 13°
2026-05-06 01:12 37.63289 -77.61825 3889 ft 288 kts 36°
2026-05-06 01:13 37.64855 -77.60309 3519 ft 281 kts 39°
2026-05-06 01:13 37.66383 -77.58781 3030 ft 279 kts 40°
2026-05-06 01:13 37.67900 -77.57264 2510 ft 277 kts 45°
2026-05-06 01:13 37.68983 -77.55332 2186 ft 267 kts 76°
2026-05-06 01:14 37.69634 -77.50835 2002 ft 255 kts 97°
2026-05-06 01:14 37.69436 -77.48680 2026 ft 241 kts 116°
2026-05-06 01:14 37.68766 -77.46810 2019 ft 229 kts 133°
2026-05-06 01:15 37.67742 -77.45346 2010 ft 218 kts 148°
2026-05-06 01:15 37.66549 -77.44314 2007 ft 198 kts 156°
2026-05-06 01:15 37.65419 -77.43404 2023 ft 189 kts 157°
2026-05-06 01:15 37.64320 -77.42522 2016 ft 186 kts 157°
2026-05-06 01:16 37.63253 -77.41662 2028 ft 176 kts 157°
2026-05-06 01:16 37.62221 -77.40832 2032 ft 172 kts 157°
2026-05-06 01:16 37.61556 -77.40298 2023 ft 169 kts 158°
2026-05-06 01:16 37.60298 -77.39284 2003 ft 153 kts 158°
2026-05-06 01:17 37.59714 -77.38814 1955 ft 148 kts 158°
2026-05-06 01:17 37.58855 -77.38126 1817 ft 143 kts 157°
2026-05-06 01:17 37.58017 -77.37455 1662 ft 145 kts 159°
2026-05-06 01:17 37.57160 -77.36770 1461 ft 147 kts 155°
2026-05-06 01:18 37.56300 -77.36079 1272 ft 148 kts 156°
2026-05-06 01:18 37.55464 -77.35406 1082 ft 136 kts 153°
2026-05-06 01:18 37.54662 -77.34763 896 ft 135 kts 153°
2026-05-06 01:18 37.53880 -77.34137 731 ft 132 kts 150°
2026-05-06 01:19 37.53102 -77.33520 560 ft 131 kts 151°
2026-05-06 01:19 37.52339 -77.32900 382 ft 131 kts 150°
2026-05-06 01:19 37.51565 -77.32280 206 ft 132 kts 150°
2026-05-06 01:19 37.50867 -77.31719 173 ft 98 kts 147°
2026-05-06 01:20 37.50463 -77.31396 175 ft 40 kts 147°
2026-05-06 01:20 37.50309 -77.31287 173 ft 17 kts 182°
2026-05-06 01:20 37.50234 -77.31403 172 ft 17 kts 240°
2026-05-06 01:20 37.50247 -77.31529 172 ft 18 kts 324°
2026-05-06 01:21 37.50357 -77.31617 172 ft 20 kts 327°
2026-05-06 01:21 37.50481 -77.31716 172 ft 22 kts 327°
2026-05-06 01:21 37.50617 -77.31824 172 ft 23 kts 328°
2026-05-06 01:21 37.50756 -77.31935 172 ft 24 kts 327°
2026-05-06 01:22 37.50891 -77.32042 172 ft 21 kts 325°
2026-05-06 01:22 37.50953 -77.32205 172 ft 23 kts 277°
2026-05-06 01:22 37.50973 -77.32417 172 ft 25 kts 278°
2026-05-06 01:22 37.50992 -77.32627 173 ft 23 kts 273°
2026-05-06 01:23 37.50964 -77.32800 172 ft 17 kts 257°
2026-05-06 01:23 37.50884 -77.32899 172 ft 18 kts 194°
2026-05-06 01:23 37.50752 -77.32939 172 ft 20 kts 193°
2026-05-06 01:23 37.50609 -77.32983 172 ft 22 kts 191°
2026-05-06 01:24 37.50466 -77.33032 172 ft 19 kts 215°
2026-05-06 01:24 37.50461 -77.33164 172 ft 16 kts 283°
2026-05-06 01:24 37.50525 -77.33267 172 ft 16 kts 341°
2026-05-06 01:24 37.50628 -77.33265 172 ft 13 kts
2026-05-06 01:25 37.50677 -77.33232 172 ft 5 kts 74°
2026-05-06 01:25 37.50683 -77.33199 172 ft 4 kts 78°
2026-05-06 01:25 37.50683 -77.33196 172 ft 0 kts 78°